Regional Weather Roundup
Issued by NWS

Home | Current Version | Previous Version | Text Only | Print | Product List | Glossary Off
Versions: 1 2 3 4 5 6 7 8 9 10 11 12 13 14 15 16 17 18 19 20 21 22 23 24 25 26 27 28 29 30 31 32 33 34 35 36 37 38 39 40 41 42 43 44 45 46 47 48 49 50

901
ASUS43 KLMK 251802
RWRKY
KENTUCKY REGIONAL WEATHER ROUNDUP
NATIONAL WEATHER SERVICE LOUISVILLE KY
200 PM EDT SUN JUN 25 2017

NOTE "FAIR" INDICATES FEW OR NO CLOUDS BELOW 12,000 FEET
WITH NO SIGNIFICANT WEATHER AND/OR OBSTRUCTIONS TO VISIBILITY.

KYZ001>023-026-027-061>063-070>075-251900-
WESTERN AND SOUTH CENTRAL KENTUCKY

CITY           SKY/WX    TMP DP  RH WIND       PRES   REMARKS
PADUCAH        SUNNY     82  50  32 W13       30.22F
HENDERSON      NOT AVBL
OWENSBORO      SUNNY     81  50  33 W20G25    30.19F
HOPKINSVILLE   SUNNY     79  50  35 NW8       30.23S
BOWLING GREEN  SUNNY     80  49  33 VRB6      30.22F
GLASGOW        NOT AVBL
$$

KYZ024-025-028>034-038-045-046-053-251900-
NORTH CENTRAL KENTUCKY

CITY           SKY/WX    TMP DP  RH WIND       PRES   REMARKS
LOUISVILLE/SDF MOSUNNY   81  49  32 W14       30.17F
LOUISVILLE/LOU MOSUNNY   81  49  32 W15       30.17F
FORT KNOX      MOSUNNY   78  52  39 W9        30.17F
$$

KYZ035>037-039>044-047>052-055>060-089>105-251900-
NORTHEAST KENTUCKY

CITY           SKY/WX    TMP DP  RH WIND       PRES   REMARKS
LEXINGTON      MOSUNNY   77  45  32 SW10      30.19F
COVINGTON      MOSUNNY   76  50  40 W13       30.14F
FRANKFORT      MOSUNNY   79  51  37 SW7       30.17F
$$

KYZ054-064>069-076>088-106>120-251900-
SOUTHEAST KENTUCKY

CITY           SKY/WX    TMP DP  RH WIND       PRES   REMARKS
JACKSON        MOSUNNY   76  50  40 VRB5      30.21F
LONDON         SUNNY     77  43  29 MISG      30.22S
SOMERSET       SUNNY     75  45  33 N7        30.23F
MIDDLESBORO    SUNNY     77  49  37 W5        30.21F
MONTICELLO     CLEAR     76  48  37 W9G21     30.24F
$$





USA.gov is the U.S. government's official web portal to all federal, state and local government web resources and services.